Regional Weather Roundup
Issued by NWS Newport/Morehead, NC

Current Version | Previous Version | Text Only | Print | Product List | Glossary On
Versions: 1 2 3 4 5 6 7 8 9 10 11 12 13 14 15 16 17 18 19 20 21 22 23 24 25 26 27 28 29 30 31 32 33 34 35 36 37 38 39 40 41 42 43 44 45 46 47 48 49 50
000
ASUS42 KMHX 020410
RWRMHX
WEATHER ROUNDUP FOR EASTERN NORTH CAROLINA
NATIONAL WEATHER SERVICE NEWPORT/MOREHEAD CITY NC
1200 AM EDT THU OCT 02 2014

NOTE: "FAIR" INDICATES FEW OR NO CLOUDS BELOW 12,000 FEET
WITH NO SIGNIFICANT WEATHER AND/OR OBSTRUCTIONS TO VISIBILITY

NCZ015>017-031-032-045>047-102-103-020500-
NORTH COAST

CITY           SKY/WX    TMP DP  RH WIND       PRES   REMARKS
EDENTON        PTCLDY    64  62  96 CALM      30.04F
ELIZABETH CITY CLOUDY    68  64  87 NE6       30.04S
KITTY HAWK     CLOUDY    69  63  81 NE3       30.03S
MANTEO         MOCLDY    68  63  83 NE8       30.04S

$$

NCZ045>047-081-094-103-104-020500-
CENTRAL COAST

CITY           SKY/WX    TMP DP  RH WIND       PRES   REMARKS
FRISCO         PTCLDY    66  64  93 NE8       30.03S
SWANQUARTER      N/A     66 N/A N/A NE3       30.00S

$$

NCZ095-097-098-100-101-020500-
SOUTHERN COAST

CITY           SKY/WX    TMP DP  RH WIND       PRES   REMARKS
BEAUFORT       CLEAR     67  65  93 CALM      30.03S
CEDAR ISLAND     N/A     72 N/A N/A NE9       30.06S
JACKSONVILLE   CLEAR     64  63  96 W3        30.03R
NEWPORT        NOT AVBL
PINEY ISLAND   CLOUDY    73  65  75 NE8       30.03S
WILMINGTON     CLEAR     65  64  97 CALM      30.03S


$$

NCZ011>013-027>030-043-044-078>080-089-090>093-098-020500-
COASTAL PLAIN

CITY           SKY/WX    TMP DP  RH WIND       PRES   REMARKS
AHOSKIE        PTCLDY    62  61  96 CALM      30.05F
CLINTON        CLEAR     63  63 100 CALM      30.04R FOG
ELIZABETHTOWN  CLEAR     67  66  97 CALM      30.04R
GOLDSBORO      CLEAR     64  63  98 CALM      30.03R
GREENVILLE     CLEAR     63  63 100 CALM      30.06S FOG
HAVELOCK       PTCLDY    66  64  93 CALM      30.05R
KENANSVILLE    CLEAR     61  61 100 CALM      30.05R FOG
KINSTON          N/A     63  62  97 CALM      30.05R FOG
NEW BERN       PTCLDY    65  62  90 CALM      30.05S
RICHLANDS      CLEAR     61  57  88 CALM      30.04R
ROANOKE RAPIDS NOT AVBL
ROCKY MOUNT    FOG       62  61  96 CALM      30.05R VSB 1/4
WASHINGTON     CLEAR     64  62  92 CALM      30.05S
WHITEVILLE     CLEAR     66  64  94 CALM      30.03S

$$

AMZ130-135-150-152-154-156-158-170-250-252-270-ANZ085-086-088-633-658-670-020500-
MARINE OBSERVATIONS

STATION/POSITION TIME  TEMP    WIND        PRES    WAVE   SWELL
                       AIR SEA DIR/SP/G            HT/PER HT/PER
                 (UTC) (F)     (DEG/KT/KT) (MB)    (FT/S) (FT/S)
CHESAPEAKE LIGHT 0300   69      50/ 12/ 14 1018.0
BUOY 44014       0400   69 71   10/ 12/ 16 1016.2    4/ 6   3/ 6
DUCK             0400   70 73   30/ 10/ 13 1016.4
2E DUCK          0300                        N/A     4/ 6   2/13
OREGON INLET     0400   69 74   20/ 10/ 14 1017.0
BUOY 44095       0400      73                N/A     4/ 8   2/13
20E OREGON INLET NOT AVBL
HATTERAS CG      0400           40/  8/ 10 1017.2
DIAMOND BUOY     0400   71      10/ 16/ 17 1016.4    3/ 7   2/ 7
CAPE LOOKOUT     0300   73      50/  9/ 10 1016.7
BEAUFORT LAB     0400           40/  2/  3 1016.4
30 SE NEW RIVER  0400   75 79   60/  8/ 10 1016.2    2/ 7   2/ 7
5 SE WRIGHTSVILL 0300   72 76  350/  2/  2   N/A
BUOY 41002       0310   79 80   40/ 12/ 14 1015.3    4/ 6   2/ 6
BUOY 41004       0400   77 81   70/ 10/ 12 1016.4    2/ 6   2/ 6

$$


USA.gov is the U.S. government's official web portal to all federal, state and local government web resources and services.